Location: Balsareny
(41.8670°N, 1.8830°E)
Time: 14:12:28
(UTC+02:00)

Envisat - Pass Details

Date: 13 August 2024
Orbit: 762 x 764 km, 98.3° (Epoch: 16 September)

Event Time Altitude Azimuth Distance (km) Brightness Sun altitude
Rises 03:37:42 0° 35° (NE) 3,234 7.4 -29.0°
Reaches altitude 10° 03:41:34 10° 65° (ENE) 2,300 6.1 -28.7°
Maximum altitude 03:43:35 12° 89° (E) 2,139 5.6 -28.5°
Drops below altitude 10° 03:45:37 10° 113° (ESE) 2,293 5.5 -28.3°
Enters shadow 03:46:24 - 121° (ESE) 2,427 5.6 -28.2°
